QPF
0.00 0.00 0.00 0.00 0.00 0.00 0.00 0.00 0.00 0.00 0.00 0.00 0.00 0.00 0.00 0.00 0.00 0.00 0.00 0.00 0.00 0.00 0.00 0.00 0.00 0.00 0.00 0.00 0.00 0.00 0.00 0.00 0.00 0.00 0.00 0.00 0.00 0.00 0.00 0.00 0.00 0.00 0.00 0.00
0.00 0.00 0.00 0.00 0.00 0.00 0.00 0.00 0.00 0.00 0.00 0.00 0.00 0.00 0.00 0.00 0.00 0.00 0.00 0.00 0.00 0.00 0.00 0.00 0.00 0.00 0.00 0.00 0.00 0.00 0.00 0.00 0.00 0.00 0.00 0.00 0.00 0.00 0.00 0.00 0.00 0.00 0.00 0.00
0.00 0.00 0.00 0.00 0.00 0.00 0.00 0.00 0.00 0.00 0.00 0.00 0.00 0.00 0.00 0.00 0.00 0.00 0.00 0.00 0.00 0.00 0.00 0.00 0.00 0.00 0.00 0.00 0.00 0.00 0.00 0.00 0.00 0.00 0.00 0.00 0.00 0.00 0.00 0.00 0.00 0.00 0.00 0.00
0.00 0.00 0.00 0.00 0.00 0.00 0.00 0.00 0.00 0.00 0.00 0.00 0.00 0.00 0.00 0.00 0.00 0.00 0.00 0.00 0.00 0.00 0.00 0.00 0.00 0.00 0.00 0.00 0.00 0.00 0.00 0.00 0.00 0.00 0.00 0.00 0.00 0.00 0.00 0.00 0.00 0.00 0.00 0.00
0.00 0.00 0.00 0.00 0.00 0.00 0.00 0.00 0.00 0.00 0.00 0.00 0.00 0.00 0.00 0.00 0.00 0.00 0.00 0.00 0.00 0.00 0.00 0.00 0.00 0.00 0.00 0.00 0.00 0.00 0.00 0.00 0.00 0.00 0.00 0.00 0.00 0.00 0.00 0.00 0.00 0.00 0.00 0.00
0.00 0.00 0.00 0.00 0.00 0.00 0.00 0.00 0.00 0.00 0.00 0.00 0.00 0.00 0.00 0.00 0.00 0.00 0.00 0.00 0.00 0.00 0.00 0.00 0.00 0.00 0.00 0.00 0.00 0.00 0.00 0.00 0.00 0.00 0.00 0.00 0.00 0.00 0.00 0.00 0.00 0.00 0.00 0.00
0.00 0.00 0.01 0.00 0.00 0.00 0.01 0.00 0.01 0.00 0.00 0.00 0.00 0.00 0.00 0.00 0.00 0.00 0.00 0.00 0.00 0.00 0.00 0.00 0.00 0.00 0.00 0.00 0.00 0.00 0.00 0.00 0.00 0.00 0.00 0.00 0.00 0.00 0.00 0.00 0.00 0.00 0.00 0.00
0.00 0.02 0.07 0.01 0.02 0.00 0.00 0.00 0.01 0.01 0.00 0.00 0.00 0.00 0.00 0.00 0.00 0.00 0.00 0.00 0.00 0.00 0.00 0.00 0.00 0.00 0.00 0.00 0.00 0.00 0.00 0.00 0.00 0.00 0.00 0.00 0.00 0.00 0.00 0.00 0.00 0.00 0.00 0.00
0.03 0.09 0.03 0.04 0.04 0.00 0.00 0.00 0.01 0.00 0.00 0.00 0.00 0.00 0.00 0.00 0.00 0.00 0.00 0.00 0.00 0.00 0.00 0.00 0.00 0.00 0.00 0.00 0.00 0.00 0.00 0.00 0.00 0.00 0.00 0.00 0.00 0.00 0.00 0.00 0.00 0.00 0.00 0.00
0.01 0.02 0.00 0.03 0.07 0.01 0.00 0.00 0.00 0.00 0.00 0.00 0.00 0.00 0.00 0.00 0.00 0.00 0.00 0.00 0.00 0.00 0.00 0.00 0.00 0.00 0.00 0.00 0.00 0.00 0.00 0.00 0.00 0.00 0.00 0.00 0.00 0.00 0.00 0.00 0.00 0.00 0.00 0.01
0.00 0.00 0.00 0.00 0.02 0.01 0.00 0.00 0.00 0.00 0.00 0.00 0.00 0.00 0.00 0.00 0.00 0.00 0.00 0.00 0.00 0.00 0.00 0.00 0.00 0.00 0.00 0.00 0.00 0.00 0.00 0.00 0.00 0.00 0.00 0.00 0.00 0.00 0.00 0.00 0.00 0.00 0.01 0.01
0.00 0.00 0.00 0.00 0.00 0.00 0.00 0.00 0.00 0.00 0.00 0.00 0.00 0.00 0.00 0.00 0.00 0.00 0.00 0.00 0.00 0.00 0.00 0.00 0.00 0.00 0.00 0.00 0.00 0.00 0.00 0.00 0.00 0.00 0.00 0.00 0.00 0.00 0.00 0.00 0.00 0.00 0.00 0.00
0.00 0.00 0.00 0.00 0.00 0.00 0.00 0.00 0.00 0.00 0.00 0.00 0.00 0.00 0.00 0.00 0.00 0.00 0.00 0.00 0.00 0.00 0.00 0.00 0.00 0.00 0.00 0.00 0.00 0.00 0.00 0.00 0.00 0.00 0.00 0.00 0.00 0.00 0.00 0.00 0.00 0.00 0.00 0.00
0.00 0.00 0.00 0.00 0.00 0.00 0.00 0.00 0.00 0.00 0.00 0.00 0.00 0.00 0.00 0.00 0.00 0.00 0.00 0.00 0.00 0.00 0.00 0.00 0.00 0.00 0.00 0.00 0.00 0.00 0.00 0.00 0.00 0.00 0.00 0.00 0.00 0.00 0.00 0.00 0.00 0.00 0.00 0.01
0.00 0.00 0.00 0.00 0.00 0.00 0.00 0.00 0.00 0.01 0.01 0.00 0.00 0.00 0.00 0.00 0.00 0.00 0.00 0.00 0.00 0.00 0.00 0.00 0.00 0.00 0.00 0.00 0.00 0.00 0.00 0.00 0.00 0.01 0.00 0.00 0.00 0.00 0.01 0.01 0.01 0.01 0.00 0.00
0.00 0.00 0.00 0.00 0.00 0.00 0.00 0.00 0.00 0.00 0.01 0.01 0.00 0.00 0.00 0.00 0.00 0.00 0.00 0.00 0.00 0.00 0.00 0.00 0.00 0.00 0.00 0.00 0.00 0.00 0.00 0.00 0.00 0.00 0.00 0.00 0.01 0.02 0.01 0.01 0.02 0.04 0.02 0.01
0.02 0.02 0.01 0.01 0.00 0.00 0.00 0.00 0.00 0.00 0.00 0.00 0.00 0.00 0.00 0.00 0.00 0.00 0.00 0.00 0.00 0.00 0.00 0.00 0.00 0.00 0.00 0.00 0.00 0.00 0.00 0.00 0.00 0.00 0.00 0.00 0.00 0.01 0.00 0.01 0.01 0.01 0.00 0.00
0.02 0.02 0.02 0.01 0.01 0.00 0.00 0.00 0.00 0.00 0.00 0.00 0.00 0.00 0.00 0.00 0.00 0.00 0.00 0.00 0.00 0.00 0.00 0.00 0.00 0.00 0.00 0.00 0.00 0.00 0.00 0.00 0.00 0.00 0.00 0.00 0.00 0.00 0.00 0.00 0.00 0.00 0.00 0.00
0.01 0.02 0.02 0.01 0.02 0.01 0.00 0.00 0.00 0.00 0.00 0.00 0.00 0.00 0.00 0.00 0.00 0.00 0.00 0.00 0.00 0.00 0.00 0.00 0.00 0.00 0.00 0.00 0.00 0.00 0.00 0.00 0.00 0.00 0.00 0.00 0.00 0.00 0.00 0.00 0.00 0.00 0.00 0.00
0.02 0.04 0.04 0.02 0.04 0.02 0.02 0.05 0.02 0.01 0.01 0.00 0.00 0.00 0.00 0.00 0.00 0.00 0.00 0.00 0.00 0.00 0.00 0.00 0.01 0.05 0.07 0.04 0.01 0.00 0.00 0.00 0.00 0.00 0.00 0.00 0.00 0.00 0.00 0.00 0.00 0.00 0.00 0.00
0.00 0.01 0.02 0.07 0.14 0.12 0.08 0.11 0.07 0.04 0.03 0.03 0.02 0.04 0.04 0.06 0.03 0.01 0.01 0.00 0.00 0.00 0.00 0.07 0.10 0.07 0.10 0.08 0.04 0.01 0.00 0.00 0.00 0.00 0.00 0.00 0.00 0.00 0.00 0.00 0.00 0.00 0.00 0.00
0.00 0.00 0.02 0.03 0.06 0.13 0.26 0.32 0.28 0.17 0.13 0.13 0.14 0.16 0.16 0.14 0.14 0.11 0.07 0.06 0.07 0.09 0.02 0.02 0.13 0.25 0.21 0.14 0.06 0.03 0.01 0.00 0.00 0.00 0.00 0.00 0.00 0.00 0.00 0.00 0.00 0.00 0.00 0.00
0.00 0.00 0.00 0.00 0.01 0.02 0.05 0.09 0.19 0.28 0.26 0.32 0.35 0.27 0.30 0.29 0.25 0.19 0.16 0.17 0.16 0.16 0.13 0.11 0.11 0.13 0.17 0.22 0.25 0.17 0.07 0.03 0.01 0.00 0.00 0.00 0.00 0.00 0.00 0.00 0.00 0.00 0.00 0.00
0.00 0.00 0.00 0.00 0.00 0.00 0.00 0.00 0.00 0.01 0.02 0.04 0.09 0.15 0.20 0.27 0.28 0.18 0.13 0.12 0.10 0.08 0.08 0.11 0.09 0.08 0.06 0.04 0.03 0.04 0.04 0.03 0.02 0.01 0.00 0.00 0.00 0.00 0.00 0.00 0.00 0.00 0.00 0.00
0.00 0.00 0.00 0.00 0.00 0.00 0.00 0.00 0.00 0.00 0.00 0.00 0.00 0.01 0.02 0.04 0.08 0.08 0.06 0.06 0.05 0.03 0.02 0.03 0.03 0.02 0.01 0.00 0.00 0.00 0.00 0.00 0.00 0.00 0.00 0.00 0.00 0.00 0.00 0.00 0.00 0.00 0.00 0.00
0.00 0.00 0.00 0.00 0.00 0.00 0.00 0.00 0.00 0.00 0.00 0.00 0.00 0.00 0.00 0.00 0.00 0.00 0.01 0.01 0.01 0.01 0.01 0.00 0.00 0.00 0.00 0.00 0.00 0.00 0.00 0.00 0.00 0.00 0.00 0.00 0.00 0.00 0.00 0.00 0.00 0.00 0.00 0.00
0.00 0.00 0.00 0.00 0.00 0.00 0.00 0.00 0.00 0.00 0.00 0.00 0.00 0.00 0.00 0.00 0.00 0.00 0.00 0.00 0.00 0.00 0.00 0.00 0.00 0.00 0.00 0.00 0.00 0.00 0.00 0.00 0.00 0.00 0.00 0.00 0.00 0.00 0.00 0.00 0.00 0.00 0.00 0.00
MSLP
1005.05 1001.86 999.46 997.31 995.11 994.44 994.79 994.97 995.60 995.66 995.48 994.17 993.63 993.08 991.90 991.14 991.69 992.36 992.82 993.88 994.92 996.00 997.34 998.36 999.58 1000.37 1001.44 1002.51 1003.46 1004.37 1005.39 1006.10 1006.75 1007.46 1008.06 1008.69 1009.31 1009.80 1010.42 1010.97 1011.42 1011.84 1012.29 1012.67
1004.10 999.80 998.10 996.58 994.76 994.15 994.20 994.31 995.00 995.12 994.88 993.97 993.55 993.69 992.33 992.08 992.15 992.53 992.88 993.47 994.22 995.28 996.37 997.46 998.36 999.33 1000.45 1001.55 1002.36 1003.42 1004.19 1004.89 1005.74 1006.60 1007.17 1007.60 1008.23 1008.87 1009.50 1010.00 1010.44 1010.95 1011.21 1011.55
1004.40 1000.28 997.85 997.04 996.43 994.54 994.30 994.53 995.06 995.84 994.79 994.31 994.83 995.32 994.53 993.43 992.81 993.11 993.19 993.29 993.80 994.57 995.38 996.30 997.44 998.53 999.63 1000.40 1001.57 1002.52 1003.17 1004.01 1004.78 1005.45 1006.16 1006.62 1007.09 1007.87 1008.41 1008.86 1009.44 1009.79 1010.13 1010.50
1004.55 1001.20 998.89 998.55 997.33 996.72 996.29 997.15 997.26 996.56 995.61 995.10 996.03 995.90 995.48 995.20 994.66 994.20 994.41 994.53 994.92 995.16 995.88 996.64 997.54 998.35 999.26 1000.34 1000.99 1001.60 1002.50 1003.19 1003.94 1004.73 1005.34 1005.91 1006.48 1006.96 1007.47 1007.90 1008.31 1008.67 1009.04 1009.35
1005.21 1002.36 999.34 998.51 999.10 999.15 998.92 999.85 999.91 998.42 996.11 996.09 995.89 995.16 997.00 997.10 996.71 996.44 995.61 995.55 995.63 995.57 995.93 996.48 997.11 997.71 998.70 999.71 1000.32 1001.15 1001.72 1002.04 1002.71 1003.51 1004.26 1004.96 1005.44 1005.93 1006.36 1006.88 1007.24 1007.44 1007.69 1008.18
1005.62 1003.68 1002.31 1003.18 1000.52 998.22 998.20 1000.81 1000.98 999.93 998.67 997.71 996.38 997.81 999.87 998.98 998.08 997.53 997.07 996.67 996.55 996.48 996.72 996.96 997.42 997.67 998.20 998.97 999.75 1000.16 1000.65 1001.06 1001.99 1002.68 1003.28 1003.79 1004.32 1004.82 1005.16 1005.67 1005.99 1006.31 1006.66 1006.98
1005.85 1004.65 1004.61 1004.29 1002.14 999.28 1001.30 1004.55 1003.02 1001.87 1000.97 1000.31 1000.34 1000.46 1000.60 999.75 999.12 998.82 998.30 997.91 997.50 997.21 997.56 997.84 997.95 998.07 998.54 999.02 999.18 998.98 999.74 1000.37 1001.05 1001.57 1002.11 1002.71 1003.43 1004.06 1004.52 1004.92 1005.30 1005.60 1005.87 1006.12
1006.97 1006.83 1007.50 1007.03 1005.34 1005.37 1006.74 1004.88 1003.78 1003.09 1002.55 1002.42 1002.02 1001.09 1000.76 1000.53 1000.17 999.77 999.39 999.02 998.71 998.28 998.51 998.55 998.46 998.52 999.19 999.76 999.72 999.52 999.79 1000.19 1000.56 1000.92 1001.46 1002.19 1002.70 1003.22 1003.69 1004.16 1004.53 1004.87 1005.27 1005.53
1009.63 1009.37 1009.02 1008.61 1008.37 1007.50 1006.55 1005.74 1004.61 1003.84 1003.35 1003.07 1002.66 1002.15 1001.76 1001.74 1001.40 1000.85 1000.53 1000.37 1000.21 999.93 999.75 999.56 999.57 999.70 1000.05 1000.32 999.91 999.61 999.80 1000.02 1000.13 1000.53 1001.01 1001.47 1002.16 1002.65 1003.26 1003.64 1003.99 1004.38 1004.74 1005.10
1010.09 1009.97 1009.69 1009.25 1008.74 1007.98 1007.69 1006.77 1005.64 1004.53 1003.79 1003.37 1003.07 1002.75 1002.62 1002.46 1002.30 1001.95 1001.76 1001.66 1001.38 1000.94 1000.73 1000.66 1000.37 1000.36 1000.61 1000.59 1000.30 1000.15 1000.02 1000.00 1000.06 1000.39 1000.70 1001.13 1001.65 1002.24 1002.80 1003.25 1003.63 1004.00 1004.37 1004.74
1010.98 1010.64 1010.40 1009.62 1009.58 1009.30 1007.86 1007.18 1006.27 1005.23 1004.43 1004.01 1003.92 1003.60 1003.15 1002.99 1002.91 1002.58 1002.26 1001.87 1001.50 1001.49 1001.45 1001.17 1000.75 1000.64 1000.84 1000.95 1000.89 1000.74 1000.39 1000.03 999.93 1000.11 1000.54 1001.13 1002.18 1002.95 1002.93 1002.61 1002.83 1003.23 1003.68 1004.14
1012.49 1012.18 1013.02 1010.74 1010.32 1010.14 1008.96 1008.29 1006.94 1005.62 1004.60 1004.10 1004.05 1004.22 1004.08 1004.03 1004.03 1003.77 1003.40 1002.81 1002.62 1002.47 1002.06 1001.71 1001.08 1000.67 1000.52 1000.60 1000.82 1000.91 1000.88 1000.50 1000.19 1000.27 1000.55 1001.07 1002.22 1003.51 1003.89 1003.77 1003.33 1003.23 1003.36 1003.89
1011.71 1011.66 1011.81 1010.98 1010.47 1010.26 1010.16 1008.61 1006.92 1006.59 1006.11 1005.68 1005.25 1005.22 1005.19 1005.11 1004.67 1004.40 1004.11 1003.77 1003.52 1003.19 1002.69 1002.15 1001.75 1001.36 1001.03 1000.92 1000.88 1000.89 1000.85 1000.48 1000.33 1000.39 1000.57 1001.16 1002.38 1003.13 1004.08 1004.82 1004.52 1004.80 1004.79 1004.95
1011.19 1010.81 1010.58 1010.21 1009.66 1009.02 1009.04 1008.18 1007.38 1007.19 1006.58 1006.43 1005.76 1005.55 1005.75 1005.65 1005.39 1004.97 1004.59 1004.02 1003.26 1002.85 1002.45 1002.01 1001.88 1001.57 1001.15 1001.14 1001.16 1001.07 1000.71 1000.38 1000.31 1000.45 1000.66 1001.25 1002.26 1002.99 1003.63 1004.36 1005.24 1006.03 1006.02 1006.28
1010.36 1009.74 1009.23 1008.66 1008.20 1008.32 1008.57 1008.67 1007.93 1008.46 1007.81 1006.92 1006.27 1006.33 1006.10 1006.05 1005.84 1005.66 1005.09 1004.43 1003.71 1003.04 1002.54 1002.02 1001.91 1001.58 1001.44 1001.52 1001.48 1001.54 1001.13 1001.15 1001.22 1001.51 1001.51 1001.75 1002.49 1003.22 1003.98 1004.95 1005.83 1006.61 1007.07 1007.10
1010.15 1009.24 1008.57 1007.89 1007.51 1007.98 1008.26 1008.40 1008.45 1007.82 1007.34 1007.64 1007.20 1007.17 1006.67 1006.20 1006.05 1005.92 1005.65 1005.02 1004.73 1004.53 1003.57 1002.74 1002.41 1002.03 1001.72 1001.79 1001.96 1002.00 1002.16 1002.02 1002.03 1002.44 1002.75 1003.12 1003.54 1004.18 1005.15 1005.87 1006.74 1007.27 1007.66 1007.94
1010.89 1009.94 1009.04 1008.15 1007.94 1007.91 1007.59 1007.71 1008.01 1007.88 1007.62 1007.33 1006.86 1006.98 1006.88 1006.60 1006.31 1006.11 1006.01 1005.99 1005.45 1004.46 1004.07 1003.75 1003.20 1002.39 1002.11 1002.13 1002.40 1002.37 1002.58 1003.04 1003.25 1003.35 1003.88 1004.43 1004.96 1005.44 1006.09 1006.66 1007.40 1008.02 1008.60 1008.70
1012.40 1011.34 1009.95 1008.62 1007.60 1007.73 1007.76 1007.79 1007.70 1007.82 1007.94 1007.67 1007.48 1007.23 1007.29 1006.82 1006.19 1005.85 1005.58 1005.60 1005.45 1004.46 1004.21 1004.05 1003.35 1002.61 1002.28 1002.47 1002.69 1003.08 1003.27 1003.59 1004.10 1004.68 1004.98 1005.49 1006.15 1006.63 1007.18 1007.75 1008.28 1008.69 1009.10 1009.24
1013.25 1012.31 1011.19 1010.10 1009.16 1008.69 1008.61 1008.52 1008.48 1008.11 1007.90 1007.61 1007.44 1007.37 1007.33 1007.09 1006.89 1006.68 1006.52 1005.84 1005.79 1005.06 1004.79 1004.42 1003.69 1002.96 1003.17 1002.92 1002.53 1003.15 1003.67 1004.01 1004.77 1005.51 1006.00 1006.39 1007.02 1007.76 1008.20 1008.67 1009.10 1009.43 1009.66 1009.64
1013.79 1013.01 1012.25 1011.71 1011.12 1010.61 1010.35 1010.07 1009.69 1009.19 1008.94 1008.48 1008.12 1007.76 1007.64 1007.60 1007.56 1007.42 1006.99 1006.71 1006.98 1006.56 1005.81 1004.73 1003.81 1003.78 1004.05 1004.32 1003.40 1003.36 1004.25 1004.64 1005.07 1005.91 1006.50 1007.19 1007.84 1008.59 1009.30 1009.62 1009.86 1010.19 1010.46 1010.69
1014.47 1013.98 1013.49 1013.11 1012.77 1012.31 1011.89 1011.61 1011.13 1010.75 1010.56 1009.97 1009.49 1009.28 1009.07 1008.85 1008.37 1007.56 1007.62 1007.37 1007.78 1007.10 1005.76 1005.10 1004.71 1004.84 1005.30 1005.29 1005.24 1004.72 1004.42 1005.69 1005.75 1006.20 1007.31 1008.08 1008.51 1009.20 1009.98 1010.68 1011.16 1011.37 1011.54 1011.65
1014.59 1014.42 1014.17 1013.80 1013.47 1013.32 1013.30 1013.08 1012.59 1012.17 1011.80 1011.44 1011.03 1010.66 1010.30 1010.04 1009.71 1008.95 1009.30 1008.81 1008.64 1007.53 1006.16 1006.19 1006.18 1005.83 1006.11 1006.28 1007.33 1006.01 1006.54 1006.06 1006.46 1007.44 1008.16 1008.73 1009.04 1009.63 1010.47 1011.32 1012.00 1012.56 1012.73 1012.87
1014.34 1014.33 1014.24 1014.11 1013.81 1013.69 1013.68 1013.53 1013.40 1013.26 1013.21 1013.07 1012.84 1012.41 1011.92 1011.79 1011.47 1010.73 1009.92 1009.61 1009.74 1009.16 1007.18 1007.68 1007.52 1006.87 1007.48 1007.01 1008.44 1008.84 1008.01 1006.97 1007.81 1007.93 1008.41 1009.46 1010.15 1009.98 1010.50 1011.44 1012.50 1013.03 1013.28 1013.55
1013.92 1013.99 1013.86 1013.75 1013.67 1013.59 1013.40 1013.33 1013.29 1013.28 1013.29 1013.35 1013.61 1013.45 1013.30 1013.18 1012.46 1011.70 1011.07 1010.81 1010.83 1009.39 1008.74 1009.33 1007.89 1008.72 1008.73 1008.80 1009.81 1009.60 1009.31 1009.16 1009.14 1008.91 1009.20 1009.81 1010.45 1010.58 1010.96 1011.51 1012.68 1013.40 1013.51 1014.00
1013.91 1013.86 1013.84 1013.87 1013.89 1013.75 1013.54 1013.09 1012.96 1013.00 1013.18 1013.18 1013.48 1013.46 1013.49 1013.38 1013.24 1012.89 1012.37 1012.02 1011.17 1010.43 1009.81 1009.84 1009.97 1009.53 1009.47 1009.78 1010.05 1010.23 1010.33 1010.09 1010.47 1009.95 1010.54 1011.11 1011.22 1011.20 1011.75 1012.19 1012.80 1013.39 1013.77 1014.29
1014.22 1014.34 1014.25 1014.05 1014.01 1013.78 1013.60 1013.42 1013.34 1013.27 1013.33 1013.34 1013.19 1013.15 1012.76 1012.45 1012.40 1011.97 1012.31 1011.72 1010.90 1010.80 1010.82 1010.63 1010.39 1010.67 1010.90 1011.17 1011.55 1011.68 1011.32 1011.27 1011.18 1011.18 1011.99 1012.47 1012.07 1012.17 1013.02 1013.21 1013.59 1014.11 1014.48 1014.49
1014.60 1014.47 1014.39 1014.21 1014.08 1013.98 1013.79 1013.73 1013.79 1013.82 1013.60 1013.39 1013.29 1012.99 1012.64 1012.53 1012.37 1012.01 1011.97 1011.77 1011.31 1011.51 1011.46 1011.31 1011.30 1011.63 1012.05 1012.17 1012.11 1012.01 1012.38 1012.37 1012.36 1012.51 1013.36 1013.84 1013.81 1013.69 1014.00 1014.04 1014.00 1014.39 1014.54 1014.28
Thickness
5622 5660 5682 5703 5744 5759 5751 5765 5755 5775 5782 5803 5822 5833 5856 5870 5867 5866 5873 5871 5869 5868 5865 5865 5860 5859 5856 5853 5852 5852 5848 5846 5844 5843 5841 5840 5838 5836 5834 5831 5829 5826 5823 5821
5636 5695 5710 5722 5749 5758 5767 5776 5770 5774 5782 5817 5834 5833 5853 5858 5862 5862 5866 5872 5872 5870 5870 5868 5867 5865 5860 5857 5857 5856 5853 5852 5851 5847 5846 5845 5843 5840 5837 5835 5833 5831 5829 5828
5621 5680 5718 5716 5723 5751 5771 5782 5785 5757 5794 5817 5808 5810 5826 5846 5859 5855 5863 5873 5873 5874 5876 5875 5872 5870 5863 5864 5862 5857 5857 5855 5854 5853 5850 5850 5849 5845 5842 5841 5839 5836 5835 5834
5617 5659 5673 5696 5716 5728 5740 5738 5747 5759 5784 5798 5798 5811 5824 5833 5838 5848 5851 5854 5856 5865 5867 5868 5870 5868 5867 5861 5860 5860 5857 5857 5857 5855 5854 5853 5851 5849 5847 5846 5844 5842 5841 5841
5614 5643 5694 5694 5692 5699 5701 5700 5717 5737 5784 5794 5805 5817 5804 5814 5822 5826 5838 5844 5852 5862 5864 5866 5871 5872 5868 5863 5862 5859 5859 5864 5864 5863 5859 5857 5856 5854 5853 5850 5849 5849 5849 5846
5604 5625 5639 5639 5683 5721 5725 5680 5709 5728 5751 5773 5797 5770 5765 5791 5808 5816 5827 5834 5840 5849 5855 5859 5860 5866 5869 5867 5863 5862 5865 5869 5867 5865 5862 5861 5860 5858 5858 5856 5855 5854 5853 5853
5609 5622 5620 5633 5662 5705 5664 5650 5687 5707 5728 5740 5742 5752 5764 5785 5795 5804 5814 5823 5833 5842 5842 5848 5854 5857 5855 5858 5865 5874 5872 5869 5867 5869 5869 5868 5863 5859 5858 5856 5855 5855 5853 5853
5598 5597 5597 5613 5631 5627 5623 5656 5675 5692 5709 5717 5729 5747 5759 5771 5783 5792 5801 5810 5821 5829 5831 5836 5843 5847 5844 5843 5853 5860 5863 5863 5866 5870 5869 5864 5861 5859 5858 5856 5853 5851 5850 5850
5560 5570 5586 5596 5597 5614 5629 5642 5665 5686 5700 5709 5721 5734 5744 5752 5765 5779 5788 5795 5802 5809 5815 5822 5828 5830 5828 5833 5844 5852 5853 5853 5858 5860 5859 5859 5855 5854 5850 5850 5848 5846 5845 5844
5566 5573 5584 5592 5599 5608 5616 5631 5655 5677 5694 5704 5711 5724 5730 5739 5749 5762 5772 5778 5787 5795 5800 5806 5816 5821 5822 5827 5834 5838 5841 5845 5847 5847 5847 5849 5851 5849 5845 5842 5840 5839 5838 5837
5557 5565 5580 5590 5593 5599 5613 5623 5644 5664 5683 5692 5697 5708 5719 5726 5734 5746 5759 5769 5778 5782 5788 5796 5806 5811 5814 5817 5821 5824 5830 5837 5841 5842 5840 5838 5831 5830 5838 5842 5841 5837 5836 5837
5530 5544 5535 5568 5583 5589 5604 5613 5634 5656 5675 5686 5689 5694 5705 5710 5716 5727 5741 5752 5761 5768 5777 5784 5795 5804 5810 5814 5814 5816 5819 5826 5832 5834 5834 5832 5823 5815 5813 5817 5823 5826 5828 5828
5543 5551 5555 5566 5569 5577 5587 5601 5623 5633 5650 5666 5672 5677 5687 5694 5704 5711 5723 5735 5744 5753 5763 5773 5780 5787 5796 5802 5805 5808 5811 5817 5822 5825 5827 5823 5814 5811 5806 5804 5804 5802 5804 5805
5546 5552 5561 5568 5573 5581 5586 5602 5616 5621 5635 5645 5659 5664 5672 5680 5689 5697 5707 5719 5736 5747 5758 5766 5770 5776 5786 5790 5793 5797 5805 5809 5814 5815 5816 5814 5807 5803 5801 5796 5790 5787 5787 5785
5549 5558 5565 5575 5584 5584 5585 5593 5600 5602 5612 5624 5641 5646 5657 5668 5676 5682 5694 5708 5723 5734 5749 5757 5763 5767 5774 5778 5780 5782 5791 5795 5797 5797 5800 5800 5797 5793 5789 5781 5776 5772 5770 5769
5544 5554 5562 5573 5581 5581 5580 5583 5583 5591 5600 5611 5622 5624 5637 5652 5662 5671 5683 5694 5704 5714 5726 5740 5747 5754 5760 5765 5767 5768 5770 5774 5778 5778 5777 5778 5775 5771 5765 5761 5756 5753 5751 5750
5523 5525 5534 5547 5558 5565 5572 5573 5575 5584 5593 5600 5611 5620 5621 5634 5648 5659 5670 5677 5687 5702 5710 5717 5727 5738 5744 5749 5750 5753 5755 5753 5754 5756 5754 5752 5750 5749 5745 5742 5737 5733 5729 5728
5498 5505 5517 5532 5548 5549 5557 5564 5568 5571 5576 5585 5592 5601 5608 5622 5636 5651 5660 5669 5673 5687 5695 5701 5711 5723 5733 5734 5735 5734 5736 5736 5734 5731 5732 5729 5726 5724 5721 5717 5714 5712 5710 5709
5492 5497 5506 5516 5525 5530 5529 5531 5541 5549 5560 5573 5583 5590 5597 5604 5617 5628 5636 5650 5654 5668 5676 5687 5698 5708 5711 5718 5725 5722 5720 5720 5716 5711 5709 5708 5704 5699 5697 5695 5692 5690 5689 5690
5487 5494 5498 5499 5501 5502 5504 5508 5513 5522 5529 5542 5555 5567 5576 5586 5598 5609 5619 5624 5630 5641 5655 5672 5682 5687 5688 5688 5700 5705 5701 5700 5698 5693 5690 5686 5681 5677 5672 5669 5670 5667 5665 5662
5480 5479 5482 5482 5480 5484 5486 5488 5492 5497 5500 5508 5521 5532 5547 5561 5573 5588 5598 5607 5607 5621 5640 5651 5658 5661 5662 5667 5668 5676 5684 5674 5677 5676 5667 5662 5660 5655 5648 5642 5639 5637 5637 5637
5478 5476 5474 5473 5472 5472 5472 5473 5476 5478 5481 5484 5490 5501 5514 5527 5542 5556 5563 5574 5585 5601 5621 5624 5629 5637 5639 5640 5634 5648 5645 5651 5652 5646 5643 5640 5638 5633 5626 5619 5614 5610 5610 5610
5479 5477 5474 5472 5471 5468 5466 5466 5466 5465 5466 5468 5470 5475 5483 5493 5505 5519 5538 5548 5556 5570 5594 5594 5599 5611 5611 5618 5608 5604 5611 5623 5624 5627 5624 5616 5613 5615 5610 5600 5592 5589 5588 5586
5479 5476 5476 5474 5471 5472 5472 5469 5467 5466 5464 5465 5462 5466 5468 5473 5485 5497 5510 5522 5530 5548 5561 5561 5577 5576 5580 5584 5584 5587 5591 5591 5595 5599 5600 5598 5594 5592 5588 5584 5576 5569 5568 5562
5477 5474 5474 5473 5469 5465 5467 5470 5471 5469 5466 5466 5465 5466 5469 5473 5474 5481 5491 5500 5512 5524 5535 5540 5544 5554 5558 5561 5564 5567 5567 5569 5568 5577 5574 5570 5569 5570 5564 5559 5553 5548 5546 5541
5468 5465 5462 5462 5462 5462 5463 5463 5460 5462 5463 5463 5464 5466 5470 5475 5478 5485 5486 5494 5507 5513 5518 5525 5532 5532 5533 5535 5536 5538 5544 5546 5547 5547 5541 5540 5546 5545 5538 5536 5531 5525 5523 5524
5458 5458 5457 5457 5456 5456 5456 5457 5456 5454 5455 5457 5460 5465 5468 5469 5472 5476 5479 5484 5492 5497 5503 5507 5510 5510 5509 5513 5519 5522 5519 5519 5519 5520 5512 5511 5515 5520 5516 5513 5510 5507 5506 5510